Time,TemperatureF,DewpointF,PressureIn,WindDirection,WindDirectionDegrees,WindSpeedMPH,WindSpeedGustMPH,Humidity,HourlyPrecipIn,Conditions,Clouds,dailyrainin,SolarRadiationWatts/m^2,SoftwareType,DateUTC
2013-02-02 00:21:00,30.0,28.0,-100.00,West,273,8.0,22.0,91,0.00,,,0.01,0.000000,,2013-02-02 07:21:00,
2013-02-02 00:32:00,30.0,28.0,-100.00,West,273,8.0,22.0,91,0.00,,,0.01,0.000000,,2013-02-02 07:32:00,
2013-02-02 00:42:00,30.0,28.0,-100.00,West,273,8.0,22.0,91,0.00,,,0.01,0.000000,,2013-02-02 07:42:00,
2013-02-02 00:51:00,30.0,28.0,-100.00,West,273,8.0,22.0,91,0.00,,,0.01,0.000000,,2013-02-02 07:51:00,
2013-02-02 01:21:00,31.0,29.0,-100.00,WNW,286,8.0,23.0,94,0.00,,,0.01,0.000000,,2013-02-02 08:21:00,
2013-02-02 01:31:00,31.0,29.0,-100.00,WNW,286,8.0,23.0,94,0.00,,,0.01,0.000000,,2013-02-02 08:31:00,
2013-02-02 01:41:00,31.0,29.0,-100.00,WNW,286,8.0,23.0,94,0.00,,,0.01,0.000000,,2013-02-02 08:41:00,
2013-02-02 01:52:00,31.0,29.0,-100.00,WNW,286,8.0,23.0,94,0.00,,,0.01,0.000000,,2013-02-02 08:52:00,
2013-02-02 02:22:00,30.0,27.0,-100.00,WNW,292,9.0,26.0,88,0.00,,,0.01,0.000000,,2013-02-02 09:22:00,
2013-02-02 02:31:00,30.0,27.0,-100.00,WNW,292,9.0,26.0,88,0.00,,,0.01,0.000000,,2013-02-02 09:31:00,
2013-02-02 02:42:00,30.0,27.0,-100.00,WNW,292,9.0,26.0,88,0.00,,,0.01,0.000000,,2013-02-02 09:42:00,
2013-02-02 02:52:00,30.0,27.0,-100.00,WNW,292,9.0,26.0,88,0.00,,,0.01,0.000000,,2013-02-02 09:52:00,
2013-02-02 03:21:00,31.0,26.0,-100.00,WNW,303,8.0,21.0,82,0.00,,,0.01,0.000000,,2013-02-02 10:21:00,
2013-02-02 03:32:00,31.0,26.0,-100.00,WNW,303,8.0,21.0,82,0.00,,,0.01,0.000000,,2013-02-02 10:32:00,
2013-02-02 03:42:00,31.0,26.0,-100.00,WNW,303,8.0,21.0,82,0.00,,,0.01,0.000000,,2013-02-02 10:42:00,
2013-02-02 03:52:00,31.0,26.0,-100.00,WNW,303,8.0,21.0,82,0.00,,,0.01,0.000000,,2013-02-02 10:52:00,
2013-02-02 04:21:00,29.0,26.0,-100.00,West,269,5.0,16.0,87,0.00,,,0.01,0.000000,,2013-02-02 11:21:00,
2013-02-02 04:32:00,29.0,26.0,-100.00,West,269,5.0,16.0,87,0.00,,,0.01,0.000000,,2013-02-02 11:32:00,
2013-02-02 04:42:00,29.0,26.0,-100.00,West,269,5.0,16.0,87,0.00,,,0.01,0.000000,,2013-02-02 11:42:00,
2013-02-02 04:52:00,29.0,26.0,-100.00,West,269,5.0,16.0,87,0.00,,,0.01,0.000000,,2013-02-02 11:52:00,
2013-02-02 05:22:00,28.0,24.0,-100.00,WNW,298,6.0,15.0,83,0.00,,,0.01,0.000000,,2013-02-02 12:22:00,
2013-02-02 05:32:00,28.0,24.0,-100.00,WNW,298,6.0,15.0,83,0.00,,,0.01,0.000000,,2013-02-02 12:32:00,
2013-02-02 05:42:00,28.0,24.0,-100.00,WNW,298,6.0,15.0,83,0.00,,,0.01,0.000000,,2013-02-02 12:42:00,
2013-02-02 05:52:00,28.0,24.0,-100.00,WNW,298,6.0,15.0,83,0.00,,,0.01,0.000000,,2013-02-02 12:52:00,
2013-02-02 06:21:00,26.0,21.0,-100.00,North,6,4.0,11.0,82,0.00,,,0.01,0.000000,,2013-02-02 13:21:00,
2013-02-02 06:32:00,26.0,21.0,-100.00,North,6,4.0,11.0,82,0.00,,,0.01,0.000000,,2013-02-02 13:32:00,
2013-02-02 06:42:00,26.0,21.0,-100.00,North,6,4.0,11.0,82,0.00,,,0.01,0.000000,,2013-02-02 13:42:00,
2013-02-02 06:52:00,26.0,21.0,-100.00,North,6,4.0,11.0,82,0.00,,,0.01,0.000000,,2013-02-02 13:52:00,
2013-02-02 07:22:00,27.0,20.0,-100.00,NW,308,5.0,11.0,76,0.00,,,0.01,1.000000,,2013-02-02 14:22:00,
2013-02-02 07:32:00,27.0,20.0,-100.00,NW,308,5.0,11.0,76,0.00,,,0.01,1.000000,,2013-02-02 14:32:00,
2013-02-02 07:42:00,27.0,20.0,-100.00,NW,308,5.0,11.0,76,0.00,,,0.01,1.000000,,2013-02-02 14:42:00,
2013-02-02 07:52:00,27.0,20.0,-100.00,NW,308,5.0,11.0,76,0.00,,,0.01,1.000000,,2013-02-02 14:52:00,
2013-02-02 08:22:00,29.0,20.0,-100.00,WNW,303,5.0,13.0,69,0.00,,,0.01,10.000000,,2013-02-02 15:22:00,
2013-02-02 08:32:00,29.0,20.0,-100.00,WNW,303,5.0,13.0,69,0.00,,,0.01,10.000000,,2013-02-02 15:32:00,
2013-02-02 08:42:00,29.0,20.0,-100.00,WNW,303,5.0,13.0,69,0.00,,,0.01,10.000000,,2013-02-02 15:42:00,
2013-02-02 08:52:00,29.0,20.0,-100.00,WNW,303,5.0,13.0,69,0.00,,,0.01,10.000000,,2013-02-02 15:52:00,
2013-02-02 09:22:00,35.0,21.0,-100.00,WNW,296,5.0,13.0,57,0.01,,,0.02,191.000000,,2013-02-02 16:22:00,
2013-02-02 09:42:00,35.0,21.0,-100.00,WNW,296,5.0,13.0,57,0.01,,,0.02,191.000000,,2013-02-02 16:42:00,
2013-02-02 09:52:00,35.0,21.0,-100.00,WNW,296,5.0,13.0,57,0.01,,,0.02,191.000000,,2013-02-02 16:52:00,
2013-02-02 10:22:00,37.0,20.0,-100.00,NW,313,10.0,21.0,50,0.01,,,0.03,378.000000,,2013-02-02 17:22:00,
2013-02-02 10:32:00,37.0,20.0,-100.00,NW,313,10.0,21.0,50,0.01,,,0.03,378.000000,,2013-02-02 17:32:00,
2013-02-02 10:42:00,37.0,20.0,-100.00,NW,313,10.0,21.0,50,0.01,,,0.03,378.000000,,2013-02-02 17:42:00,
2013-02-02 10:52:00,37.0,20.0,-100.00,NW,313,10.0,21.0,50,0.01,,,0.03,378.000000,,2013-02-02 17:52:00,
2013-02-02 11:22:00,38.0,20.0,-100.00,NW,312,9.0,24.0,48,0.00,,,0.03,504.000000,,2013-02-02 18:22:00,
2013-02-02 11:32:00,38.0,20.0,-100.00,NW,312,9.0,24.0,48,0.00,,,0.03,504.000000,,2013-02-02 18:32:00,
2013-02-02 11:42:00,38.0,20.0,-100.00,NW,312,9.0,24.0,48,0.00,,,0.03,504.000000,,2013-02-02 18:42:00,
2013-02-02 11:52:00,38.0,20.0,-100.00,NW,312,9.0,24.0,48,0.00,,,0.03,504.000000,,2013-02-02 18:52:00,
2013-02-02 12:21:00,39.0,21.0,-100.00,WNW,303,11.0,28.0,49,0.00,,,0.02,575.000000,,2013-02-02 19:21:00,
2013-02-02 12:32:00,39.0,21.0,-100.00,WNW,303,11.0,28.0,49,0.00,,,0.02,575.000000,,2013-02-02 19:32:00,
2013-02-02 12:42:00,39.0,21.0,-100.00,WNW,303,11.0,28.0,49,0.00,,,0.02,575.000000,,2013-02-02 19:42:00,
2013-02-02 12:51:00,39.0,21.0,-100.00,WNW,303,11.0,28.0,49,0.00,,,0.02,575.000000,,2013-02-02 19:51:00,
2013-02-02 13:21:00,40.0,21.0,-100.00,NW,305,11.0,28.0,47,0.00,,,0.02,587.000000,,2013-02-02 20:21:00,
2013-02-02 13:32:00,40.0,21.0,-100.00,NW,305,11.0,28.0,47,0.00,,,0.02,587.000000,,2013-02-02 20:32:00,
2013-02-02 13:42:00,40.0,21.0,-100.00,NW,305,11.0,28.0,47,0.00,,,0.02,587.000000,,2013-02-02 20:42:00,
2013-02-02 13:52:00,40.0,21.0,-100.00,NW,305,11.0,28.0,47,0.00,,,0.02,587.000000,,2013-02-02 20:52:00,
2013-02-02 14:21:00,40.0,21.0,-100.00,NW,306,12.0,28.0,46,0.00,,,0.02,541.000000,,2013-02-02 21:21:00,
2013-02-02 14:32:00,40.0,21.0,-100.00,NW,306,12.0,28.0,46,0.00,,,0.02,541.000000,,2013-02-02 21:32:00,
2013-02-02 14:42:00,40.0,21.0,-100.00,NW,306,12.0,28.0,46,0.00,,,0.02,541.000000,,2013-02-02 21:42:00,
2013-02-02 14:52:00,40.0,21.0,-100.00,NW,306,12.0,28.0,46,0.00,,,0.02,541.000000,,2013-02-02 21:52:00,
2013-02-02 15:21:00,40.0,22.0,-100.00,NW,310,10.0,28.0,48,0.00,,,0.02,304.000000,,2013-02-02 22:21:00,
2013-02-02 15:32:00,40.0,22.0,-100.00,NW,310,10.0,28.0,48,0.00,,,0.02,304.000000,,2013-02-02 22:32:00,
2013-02-02 15:42:00,40.0,22.0,-100.00,NW,310,10.0,28.0,48,0.00,,,0.02,304.000000,,2013-02-02 22:42:00,
2013-02-02 15:52:00,40.0,22.0,-100.00,NW,310,10.0,28.0,48,0.00,,,0.02,304.000000,,2013-02-02 22:52:00,
2013-02-02 16:21:00,39.0,23.0,-100.00,WNW,303,9.0,26.0,52,0.00,,,0.02,28.000000,,2013-02-02 23:21:00,
2013-02-02 16:32:00,39.0,23.0,-100.00,WNW,303,9.0,26.0,52,0.00,,,0.02,28.000000,,2013-02-02 23:32:00,
2013-02-02 16:42:00,39.0,23.0,-100.00,WNW,303,9.0,26.0,52,0.00,,,0.02,28.000000,,2013-02-02 23:42:00,
2013-02-02 16:52:00,39.0,23.0,-100.00,WNW,303,9.0,26.0,52,0.00,,,0.02,28.000000,,2013-02-02 23:52:00,
2013-02-02 17:22:00,36.0,23.0,-100.00,NW,309,8.0,21.0,58,0.00,,,0.02,28.000000,,2013-02-03 00:22:00,
2013-02-02 17:32:00,36.0,23.0,-100.00,NW,309,8.0,21.0,58,0.00,,,0.02,28.000000,,2013-02-03 00:32:00,
2013-02-02 17:42:00,36.0,23.0,-100.00,NW,309,8.0,21.0,58,0.00,,,0.02,28.000000,,2013-02-03 00:42:00,
2013-02-02 17:51:00,36.0,23.0,-100.00,NW,309,8.0,21.0,58,0.00,,,0.02,28.000000,,2013-02-03 00:51:00,
2013-02-02 18:21:00,33.0,22.0,-100.00,NNW,336,4.0,16.0,64,0.00,,,0.02,3.000000,,2013-02-03 01:21:00,
2013-02-02 18:32:00,33.0,22.0,-100.00,NNW,336,4.0,16.0,64,0.00,,,0.02,3.000000,,2013-02-03 01:32:00,
2013-02-02 18:42:00,33.0,22.0,-100.00,NNW,336,4.0,16.0,64,0.00,,,0.02,3.000000,,2013-02-03 01:42:00,
2013-02-02 18:52:00,33.0,22.0,-100.00,NNW,336,4.0,16.0,64,0.00,,,0.02,3.000000,,2013-02-03 01:52:00,
2013-02-02 19:11:00,32.0,22.0,-100.00,NNW,333,4.0,11.0,67,0.00,,,0.02,0.000000,,2013-02-03 02:11:00,
2013-02-02 19:21:00,32.0,22.0,-100.00,NNW,333,4.0,11.0,67,0.00,,,0.02,0.000000,,2013-02-03 02:21:00,
2013-02-02 19:32:00,32.0,22.0,-100.00,NNW,333,4.0,11.0,67,0.00,,,0.02,0.000000,,2013-02-03 02:32:00,
2013-02-02 19:42:00,32.0,22.0,-100.00,NNW,333,4.0,11.0,67,0.00,,,0.02,0.000000,,2013-02-03 02:42:00,
2013-02-02 19:52:00,32.0,22.0,-100.00,NNW,333,4.0,11.0,67,0.00,,,0.02,0.000000,,2013-02-03 02:52:00,
2013-02-02 20:21:00,32.0,22.0,-100.00,West,265,3.0,9.0,66,0.00,,,0.02,0.000000,,2013-02-03 03:21:00,
2013-02-02 20:32:00,32.0,22.0,-100.00,West,265,3.0,9.0,66,0.00,,,0.02,0.000000,,2013-02-03 03:32:00,
2013-02-02 20:42:00,32.0,22.0,-100.00,West,265,3.0,9.0,66,0.00,,,0.02,0.000000,,2013-02-03 03:42:00,
2013-02-02 20:51:00,32.0,22.0,-100.00,West,265,3.0,9.0,66,0.00,,,0.02,0.000000,,2013-02-03 03:51:00,
2013-02-02 21:21:00,29.0,22.0,-100.00,WSW,240,4.0,8.0,74,0.00,,,0.02,0.000000,,2013-02-03 04:21:00,
2013-02-02 21:32:00,29.0,22.0,-100.00,WSW,240,4.0,8.0,74,0.00,,,0.02,0.000000,,2013-02-03 04:32:00,
2013-02-02 21:42:00,29.0,22.0,-100.00,WSW,240,4.0,8.0,74,0.00,,,0.02,0.000000,,2013-02-03 04:42:00,
2013-02-02 21:52:00,29.0,22.0,-100.00,WSW,240,4.0,8.0,74,0.00,,,0.02,0.000000,,2013-02-03 04:52:00,
2013-02-02 22:22:00,29.0,22.0,-100.00,WSW,239,4.0,10.0,74,0.00,,,0.02,0.000000,,2013-02-03 05:22:00,
2013-02-02 22:32:00,29.0,22.0,-100.00,WSW,239,4.0,10.0,74,0.00,,,0.02,0.000000,,2013-02-03 05:32:00,
2013-02-02 22:42:00,29.0,22.0,-100.00,WSW,239,4.0,10.0,74,0.00,,,0.02,0.000000,,2013-02-03 05:42:00,
2013-02-02 22:52:00,29.0,22.0,-100.00,WSW,239,4.0,10.0,74,0.00,,,0.02,0.000000,,2013-02-03 05:52:00,
2013-02-02 23:21:00,28.0,22.0,-100.00,WSW,254,5.0,8.0,78,0.00,,,0.02,0.000000,,2013-02-03 06:21:00,
2013-02-02 23:32:00,28.0,22.0,-100.00,WSW,254,5.0,8.0,78,0.00,,,0.02,0.000000,,2013-02-03 06:32:00,
2013-02-02 23:42:00,28.0,22.0,-100.00,WSW,254,5.0,8.0,78,0.00,,,0.02,0.000000,,2013-02-03 06:42:00,
2013-02-02 23:52:00,28.0,22.0,-100.00,WSW,254,5.0,8.0,78,0.00,,,0.02,0.000000,,2013-02-03 06:52:00,